Weather History for Manchester, NH

Change the Weather History Date:

Saturday, October 26, 2013

  Actual Average Record
Temperature  
Mean Temperature 40 °F -  
Max Temperature 54 °F 58 °F 82 °F (1963)
Min Temperature 28 °F 34 °F 19 °F (1952)
Degree Days  
Heating Degree Days 24    
Moisture  
Dew Point 27 °F    
Average Humidity 57    
Maximum Humidity 89    
Minimum Humidity 31    
Precipitation  
Precipitation 0.00 in - - ()
Sea Level Pressure  
Sea Level Pressure 30.04 in    
Wind  
Wind Speed 4 mph (SSW)    
Max Wind Speed 18 mph    
Max Gust Speed 29 mph    
Visibility 10 miles    
Events      
Averages and records for this station are not official NWS values.
T = Trace of Precipitation, MM = Missing Value Source: NWS Daily Summary

Daily Weather History Graph

Daily Weather History Graph

Search for Another Location

Airport:

Trip Planner

Search our weather history database for the weather conditions in past years. The results will help you decide how hot, cold, wet, or windy it might be!

Date:

Astronomy

Oct. 26, 2013 Rise Set
Actual Time 7:12 AM EDT 5:45 PM EDT
Civil Twilight 6:43 AM EDT 6:14 PM EDT
Nautical Twilight 6:10 AM EDT 6:48 PM EDT
Astronomical Twilight 5:37 AM EDT 7:20 PM EDT
Moon 11:58 PM EDT (10/26) 1:28 PM EDT (10/26)
Length of Visible Light 11h 31m
Length of Day
10h 33m
Waning Gibbous, 53% of the Moon is Illuminated
Oct 26
Waning Gibbous
Oct 26
Last Quarter
Nov 3
New
Nov 10
First Quarter
Nov 17
Full

Hourly Weather History & Observations

Time (EDT) Temp. Windchill Dew Point Humidity Pressure Visibility Wind Dir Wind Speed Gust Speed Precip Events Conditions
12:53 AM 33.1 °F - 25.0 °F 72% 30.18 in 10.0 mi Calm Calm - N/A   Clear
1:53 AM 33.1 °F - 25.0 °F 72% 30.17 in 10.0 mi Calm Calm - N/A   Clear
2:53 AM 30.0 °F - 25.0 °F 82% 30.17 in 10.0 mi Calm Calm - N/A   Clear
3:53 AM 30.9 °F - 25.0 °F 79% 30.16 in 10.0 mi Calm Calm - N/A   Clear
4:53 AM 28.9 °F - 25.0 °F 85% 30.15 in 10.0 mi Calm Calm - N/A   Scattered Clouds
5:53 AM 30.0 °F - 25.0 °F 82% 30.16 in 10.0 mi Calm Calm - N/A   Partly Cloudy
6:53 AM 28.9 °F - 26.1 °F 89% 30.16 in 10.0 mi Calm Calm - N/A   Clear
7:53 AM 30.0 °F - 26.1 °F 85% 30.16 in 10.0 mi Calm Calm - N/A   Clear
8:53 AM 34.0 °F - 30.0 °F 85% 30.15 in 10.0 mi Calm Calm - N/A   Clear
9:53 AM 39.9 °F 35.1 °F 32.0 °F 73% 30.13 in 10.0 mi South 6.9 mph - N/A   Clear
10:53 AM 46.0 °F 42.5 °F 32.0 °F 58% 30.10 in 10.0 mi South 6.9 mph - N/A   Mostly Cloudy
11:53 AM 50.0 °F - 30.9 °F 48% 30.07 in 10.0 mi Variable 5.8 mph - N/A   Overcast
12:53 PM 51.1 °F - 21.9 °F 32% 30.03 in 10.0 mi SSW 17.3 mph 28.8 mph N/A   Partly Cloudy
1:53 PM 52.0 °F - 23.0 °F 32% 30.00 in 10.0 mi WSW 16.1 mph 24.2 mph N/A   Mostly Cloudy
2:53 PM 52.0 °F - 24.1 °F 34% 29.98 in 10.0 mi SW 9.2 mph 19.6 mph N/A   Mostly Cloudy
3:53 PM 53.1 °F - 23.0 °F 31% 29.95 in 10.0 mi SSW 18.4 mph 27.6 mph N/A   Partly Cloudy
4:53 PM 53.1 °F - 24.1 °F 32% 29.93 in 10.0 mi SSW 9.2 mph 17.3 mph N/A   Partly Cloudy
5:53 PM 52.0 °F - 24.1 °F 34% 29.92 in 10.0 mi South 12.7 mph - N/A   Mostly Cloudy
6:53 PM 51.1 °F - 25.0 °F 36% 29.92 in 10.0 mi SSW 17.3 mph 24.2 mph N/A   Mostly Cloudy
7:53 PM 50.0 °F - 27.0 °F 41% 29.93 in 10.0 mi SSW 11.5 mph - N/A   Mostly Cloudy
8:53 PM 48.9 °F - 28.9 °F 46% 29.92 in 10.0 mi South 10.4 mph - N/A   Overcast
9:53 PM 48.9 °F - 30.0 °F 48% 29.92 in 10.0 mi South 5.8 mph - N/A   Overcast
10:53 PM 48.0 °F - 30.9 °F 52% 29.91 in 10.0 mi SSW 11.5 mph - N/A   Overcast
11:53 PM 48.0 °F - 30.0 °F 50% 29.89 in 10.0 mi SSW 5.8 mph - N/A   Overcast